TTPP

Piarco International Airport

Airport
ICAO code
TTPP
IATA Code
POS
Summary
ICAO Region
CARSAM
ICAO Territory
Location

Piarco, Trinidad

Serving
Port of Spain
Elevation
58 ft
Coordinates
10° 35' 52" N , 61° 20' 22" W
KCC
Metar
TTPP 191900Z 10015KT 9999 FEW022 31/24 Q1010 NOSIG

Piarco International Airport, is an international airport serving the island of Trinidad. The airport is located 30 km east of Port of Spain.

Climatology

Tropical savannah climate (Köppen climate classification Aw)

Runways

Designator Length Width Surface Rops
10/28 3200 46 ASP Yes/Yes

Airport map

Aerial View

SKYbrary Partners:

Safety knowledge contributed by: